Theta_e
328 325 323 322 321 319 319 320 322 325 326 327 328 328 328 327 327 328 328 328 329 330 330 330 330 329 328 328 327 327 327 327 326 325 323 321 319 316 309 305 305 305 305
329 327 323 323 323 321 320 321 324 327 329 329 329 329 329 329 330 330 331 331 331 331 331 331 330 328 325 324 326 327 328 327 327 326 325 324 323 320 318 311 305 305 305
330 328 325 324 324 323 323 326 328 329 330 330 330 330 331 331 331 330 331 332 332 332 331 329 328 325 326 326 323 325 325 327 327 327 326 324 323 323 321 318 314 306 305
330 328 327 325 328 329 330 331 331 331 331 331 331 331 331 330 330 330 330 330 331 331 329 327 327 326 323 325 323 323 324 325 327 327 326 325 324 324 323 321 319 317 307
329 329 329 329 330 331 331 332 333 333 333 331 331 330 331 330 330 331 332 332 328 328 328 327 325 324 324 323 324 322 322 322 324 325 325 324 324 324 323 322 321 320 318
335 334 334 334 333 333 334 334 334 334 332 331 330 330 330 329 330 328 328 326 326 327 329 324 324 322 323 321 321 321 320 320 320 321 323 323 324 324 323 323 322 321 320
335 335 334 334 334 333 333 332 333 332 330 329 330 327 327 326 326 325 324 322 323 325 326 325 324 323 322 319 320 318 316 316 317 317 319 320 321 322 324 325 322 321 321
336 335 335 335 335 334 333 332 332 330 330 329 327 327 326 325 323 323 324 323 323 326 326 325 322 321 319 319 317 318 317 316 314 315 317 318 319 319 320 321 322 323 321
333 333 336 335 335 336 330 326 327 329 327 326 325 326 326 326 325 323 324 325 324 323 324 323 322 322 320 318 317 316 316 314 313 312 313 315 314 314 317 319 318 319 320
331 334 336 334 328 322 320 320 319 320 320 318 317 317 321 324 324 322 321 322 323 322 321 321 321 322 321 319 317 316 315 313 313 311 313 313 313 314 315 315 318 319 319
331 331 330 325 320 316 314 314 313 313 312 312 312 312 312 314 318 322 318 319 320 321 321 321 320 320 320 318 316 315 314 312 311 311 311 312 314 312 311 311 312 314 317
328 325 321 316 314 314 313 312 311 311 311 311 311 311 312 312 312 316 318 319 321 321 321 321 320 320 318 315 314 312 312 310 310 310 310 311 312 311 310 311 310 310 311
324 319 315 314 313 312 311 311 311 311 311 311 311 311 312 312 312 314 317 316 317 320 319 320 320 319 316 313 312 310 310 309 307 308 309 310 309 310 310 310 310 310 310
316 314 313 313 312 311 311 311 311 310 310 310 310 309 310 309 310 316 316 317 319 316 318 318 318 317 315 313 311 310 310 308 307 306 307 308 308 309 309 309 309 309 310
313 313 312 312 311 311 311 310 310 309 309 309 308 308 308 307 310 311 314 314 316 315 317 317 316 316 314 312 310 310 308 307 306 305 306 307 307 307 308 308 308 309 310
313 312 311 311 311 312 311 310 310 309 308 308 307 307 307 307 308 313 312 313 315 315 315 314 314 313 312 310 309 308 306 306 305 305 305 306 306 306 307 307 309 308 311
314 317 315 311 311 311 310 309 309 309 308 308 307 307 307 307 308 311 311 311 312 314 314 313 312 311 309 308 307 306 305 305 303 304 304 305 305 304 304 306 306 309 310
319 315 312 311 310 309 309 309 308 308 308 307 307 307 307 307 306 307 308 307 308 309 309 309 310 307 306 306 306 305 305 303 302 302 301 301 302 302 303 304 305 305 308
311 311 310 310 309 308 308 308 307 307 307 307 306 306 306 306 305 305 305 306 307 308 308 308 307 305 305 305 305 304 302 301 300 299 296 296 297 298 300 301 303 303 304
310 310 309 308 308 308 308 306 306 306 306 306 306 306 305 305 304 305 305 306 306 306 306 306 305 304 303 302 302 299 296 295 292 291 290 290 290 290 291 294 298 302 302
309 309 308 307 307 307 306 305 305 305 305 304 303 304 304 303 302 302 303 304 304 304 304 304 302 300 297 295 293 291 291 290 289 289 289 290 290 289 289 289 289 291 297
309 308 307 306 305 305 305 304 303 302 301 301 301 302 302 301 302 302 302 303 302 301 299 295 294 293 291 291 290 290 289 289 289 289 288 288 288 288 288 288 288 289 289
308 306 305 305 304 303 302 302 300 300 300 301 300 301 300 296 292 290 290 290 290 290 290 290 289 290 289 290 290 289 288 288 288 288 288 288 287 288 288 288 288 288 288
306 305 304 303 300 300 301 300 299 299 299 299 300 298 291 289 290 290 290 290 290 290 290 290 289 289 289 288 288 288 287 287 287 287 288 288 287 288 288 289 289 289 289
305 303 302 300 300 300 299 298 298 299 299 298 292 289 289 290 290 290 289 289 289 290 290 289 289 288 288 288 287 287 286 286 287 287 287 288 288 289 289 289 289 289 289
303 302 301 300 299 299 299 299 299 293 289 289 289 289 290 290 290 289 289 290 290 290 290 289 288 288 288 287 287 287 286 286 286 287 288 288 288 289 289 288 289 289 289
Wind_Speed
5 5 5 5 4 4 4 3 3 2 2 4 5 6 6 6 7 7 8 9 11 12 12 12 13 13 15 16 15 15 13 11 9 9 9 9 9 8 8 6 6 6 5
8 7 8 7 5 4 4 4 4 4 4 6 7 8 8 8 8 9 10 12 13 15 15 15 15 16 16 15 16 16 16 15 13 11 10 10 10 9 9 8 6 6 6
13 11 9 7 6 5 5 6 6 6 7 9 9 9 8 8 9 12 15 16 16 17 15 16 16 16 14 12 14 15 15 17 17 14 12 12 11 9 9 9 8 8 7
15 12 11 9 8 7 7 7 7 9 10 10 10 9 12 13 14 15 14 18 18 19 16 17 13 14 14 15 16 15 15 15 13 16 16 15 13 12 11 10 9 9 8
12 11 10 9 9 9 9 8 9 10 11 11 13 15 15 16 18 20 22 21 20 15 15 17 14 15 15 15 16 16 16 16 14 13 13 16 17 15 13 12 11 11 10
6 7 6 5 8 10 10 11 12 12 14 15 17 18 19 21 22 22 21 20 19 16 15 11 12 12 14 15 14 13 13 15 14 15 16 16 15 18 17 15 14 13 12
13 11 10 11 11 11 12 14 16 16 17 19 21 21 22 21 22 23 23 19 18 15 16 15 14 15 13 19 14 11 13 14 15 15 15 16 16 16 15 22 19 17 14
18 16 15 16 16 15 15 17 17 18 20 19 20 22 24 23 19 12 8 9 10 13 13 13 15 16 17 16 12 16 18 19 15 15 15 15 15 15 14 14 15 23 18
18 18 18 20 20 20 22 20 21 22 23 25 22 21 10 7 7 11 12 8 5 10 13 14 18 17 15 12 13 18 23 18 14 14 14 15 15 16 13 13 17 16 21
22 22 24 24 23 21 20 21 23 24 25 25 23 21 22 24 13 10 6 8 9 13 17 18 18 16 17 15 15 21 23 20 15 13 13 13 13 11 13 14 15 13 17
22 22 22 21 20 20 21 22 23 24 23 22 21 21 20 20 22 23 19 18 15 15 18 17 20 18 18 14 17 18 20 19 13 12 13 12 12 13 12 11 12 16 20
23 21 20 20 20 21 22 22 22 22 21 21 20 21 21 20 18 14 15 15 16 15 16 17 18 17 17 13 15 19 15 12 12 11 9 10 14 13 12 12 12 14 16
21 19 18 18 20 20 21 21 21 22 22 22 22 22 22 22 22 21 20 19 19 17 17 17 17 16 15 14 15 16 12 13 15 12 9 13 10 8 9 11 13 15 17
20 18 18 19 19 19 20 20 21 21 21 21 21 21 20 21 22 19 19 18 18 21 19 23 23 18 16 15 15 14 15 14 17 13 10 7 6 8 10 11 11 12 12
16 17 18 20 20 20 21 20 20 21 20 20 20 21 21 21 17 18 19 20 21 15 17 18 21 17 14 14 14 16 14 14 14 13 10 6 5 6 7 7 5 7 6
17 17 19 19 20 21 21 21 20 21 20 20 20 21 22 21 16 16 16 16 18 18 19 16 15 14 16 16 16 14 12 12 12 8 8 6 6 5 5 4 2 3 6
14 23 26 22 21 21 21 21 21 21 20 20 20 21 22 18 16 17 18 17 19 19 17 19 18 17 17 17 14 11 10 10 10 7 7 7 8 8 6 6 4 4 2
24 25 21 21 21 21 21 21 21 20 20 19 19 21 20 17 17 18 17 19 23 23 23 21 19 15 16 15 12 11 11 9 9 8 9 8 9 8 8 5 4 4 7
16 17 19 19 20 20 20 21 20 19 19 18 17 18 18 15 15 17 17 15 14 12 13 15 15 14 13 12 10 10 9 9 9 9 9 9 9 9 8 8 8 8 7
15 16 17 18 19 19 20 21 20 18 18 17 16 16 16 13 13 13 12 11 11 11 12 12 13 12 12 9 9 8 9 10 10 11 9 10 8 9 9 9 9 10 10
15 16 17 18 19 19 19 20 19 18 15 14 16 14 11 10 9 10 12 10 10 10 9 10 10 10 9 9 8 8 9 10 10 10 9 8 8 8 8 8 9 10 11
15 16 17 18 19 20 19 17 15 13 11 11 11 9 9 8 7 9 10 8 8 8 9 10 12 11 11 9 8 7 9 8 7 9 8 7 8 6 6 5 6 6 8
16 17 17 19 18 17 15 13 12 11 11 10 9 7 6 6 6 6 7 9 8 9 9 8 9 8 10 8 8 7 8 7 7 7 7 5 5 4 4 3 3 2 2
17 17 17 17 15 14 12 10 10 11 11 10 9 9 7 7 6 7 6 5 5 4 4 5 6 7 7 7 7 6 6 6 6 5 4 4 4 4 4 5 5 4 4
17 17 16 15 13 13 10 11 11 12 11 10 9 8 7 7 7 6 6 5 4 3 2 3 5 5 5 4 5 5 5 5 5 5 4 4 4 5 5 5 5 4 4
17 17 16 13 13 12 11 12 12 11 10 10 9 8 7 8 7 6 6 5 4 4 3 3 3 3 3 3 3 3 4 4 4 4 4 4 5 4 3 6 6 5 8
Wind_Direction
214 230 228 219 214 217 219 221 226 262 299 312 320 324 315 317 313 315 319 325 327 327 326 327 326 326 320 315 308 304 307 308 316 320 324 327 327 325 317 314 307 310 309
244 239 230 231 229 237 252 258 265 278 294 301 301 300 304 307 310 317 318 322 319 316 312 316 316 324 320 310 305 299 294 294 292 302 305 313 321 320 316 305 293 286 289
236 238 233 234 244 248 260 264 268 274 279 284 289 291 300 309 309 308 300 299 303 305 301 297 298 315 309 313 313 301 298 290 284 281 283 298 303 304 310 311 304 290 277
238 234 230 225 225 230 237 250 264 273 277 277 284 295 296 290 293 293 290 291 296 296 293 299 309 293 301 297 311 302 299 293 288 275 279 278 288 292 294 297 300 296 280
228 227 226 224 231 240 249 260 270 276 284 295 291 287 284 284 287 283 280 284 288 279 279 285 282 288 296 303 300 295 294 298 296 283 278 276 275 280 285 285 284 287 283
233 229 232 249 257 256 257 266 271 274 286 280 283 283 286 288 287 289 288 289 284 274 274 275 266 283 293 307 304 299 298 299 296 287 281 280 275 267 272 278 286 282 275
228 228 237 244 253 261 260 266 271 274 275 284 287 286 282 282 284 288 290 282 272 260 273 258 264 282 300 314 303 313 316 301 291 287 285 283 283 275 268 257 255 267 268
227 229 239 248 253 254 259 263 267 275 273 275 282 288 291 295 291 285 276 283 275 261 265 266 278 285 303 305 314 312 317 315 300 290 285 284 286 283 270 269 262 251 242
232 238 245 254 260 254 264 263 264 266 271 272 266 266 283 261 273 274 278 279 273 257 257 253 276 275 287 289 314 309 313 313 303 292 283 283 284 285 283 278 263 264 259
240 246 254 256 259 265 271 272 273 273 272 275 277 268 261 260 276 284 282 258 260 262 264 269 271 268 277 275 300 308 315 318 303 295 289 290 289 286 284 263 260 262 255
236 246 252 254 261 268 273 276 276 276 276 276 276 276 272 264 258 256 264 272 270 262 262 267 269 266 271 272 298 304 305 309 299 298 293 289 283 280 282 283 275 265 254
243 247 250 257 265 271 276 278 279 278 277 276 275 273 272 272 269 254 252 260 262 262 260 257 254 264 265 286 302 314 307 307 302 306 316 277 266 282 292 291 287 277 267
243 247 252 263 272 279 281 279 278 278 277 276 275 273 271 270 268 263 253 255 255 260 248 246 246 262 276 286 306 317 305 306 305 301 251 260 291 275 274 278 282 280 274
244 250 261 273 278 280 280 280 279 279 277 277 274 272 273 273 263 257 249 255 252 252 257 259 257 261 264 284 296 306 295 303 308 301 282 291 284 276 273 281 290 290 283
251 265 276 280 279 285 282 279 279 277 278 276 274 274 275 277 263 254 248 248 245 253 246 243 262 246 267 284 291 287 288 299 302 300 290 287 284 274 274 288 332 356 328
254 263 268 273 273 278 276 277 277 276 275 274 272 273 276 277 261 253 248 251 255 250 241 252 233 260 277 273 279 275 280 295 294 292 276 279 288 298 274 277 239 352 11
269 293 286 276 279 279 281 280 278 277 276 275 274 273 276 271 259 251 247 250 249 244 241 245 257 266 266 271 268 270 277 279 285 290 279 284 289 294 292 266 257 215 73
276 272 269 277 282 281 279 277 277 278 276 274 274 275 277 271 259 254 254 252 255 253 252 256 251 245 255 264 258 264 268 270 277 283 285 286 292 297 301 274 250 243 215
261 265 274 278 279 279 281 279 278 275 273 272 272 274 275 275 265 258 258 259 255 239 229 232 232 239 252 255 249 257 265 272 273 278 281 279 280 281 281 277 256 252 247
265 272 278 281 282 283 280 276 273 272 269 270 271 269 274 272 265 259 252 247 242 236 235 237 235 237 244 238 237 249 262 270 279 281 282 282 282 277 272 266 259 248 248
273 279 282 283 283 280 278 272 269 267 268 269 276 268 256 251 253 254 251 237 229 225 225 236 243 251 243 231 237 248 260 269 273 274 278 281 286 282 279 271 261 250 241
278 283 286 285 283 281 277 268 262 261 264 269 270 245 235 238 229 245 240 230 233 237 239 247 254 254 255 252 252 257 264 264 262 265 268 275 275 273 275 278 278 263 248
277 280 284 287 287 281 277 256 244 244 250 253 238 235 246 263 267 251 255 246 243 245 244 244 248 255 257 257 265 267 265 265 260 262 269 265 249 265 272 272 268 278 256
278 283 286 292 294 281 267 238 228 234 235 228 230 238 241 241 241 247 250 253 248 238 226 229 241 246 255 263 267 267 265 264 262 253 245 248 238 258 274 276 265 257 260
278 283 286 297 283 279 249 224 223 228 227 228 235 235 233 237 242 244 245 237 237 242 247 237 242 252 260 269 274 266 260 261 254 249 244 254 225 264 273 262 257 246 250
276 279 282 281 271 267 241 225 222 224 228 230 234 235 237 244 252 262 241 230 230 235 252 253 255 275 291 296 274 269 261 262 258 267 235 241 248 264 271 248 241 226 284